Date String (YYYY-MM-DD hh:mm:ss) UTC,Instrument flags,Ambient pressure (hPa),Sample flow (lpm),Bypass flow (lpm),Sample temperature (°C),Ambient temperature (°C),ASC tube jacket temperature (°C),LED temperature (°C),Box temperature (°C),Sample RH (%),Span deviation,Mass concentration (μg/m³),Mass concentration (μg/m³),Mass concentration (μg/m³)
DateTimeUTC,F1_M11,P_M11,Q1_M11,Q2_M11,T1_M11,T2_M11,T3_M11,T4_M11,T5_M11,U1_M11,ZSPAN_M11,X2_M11,X0_M11,X1_M11
2021-10-29 11:00:00,,0830.1,5.01,0.00,25.5,24.6,00.0,34.5,27.3,12.2,0000.0,0000.46,0000.66,0000.40
2021-10-29 11:01:00,,0830.1,5.01,0.00,25.5,24.6,00.0,34.5,27.4,12.2,0000.0,0000.45,0000.61,0000.39
2021-10-29 11:02:00,,0830.1,5.00,0.00,25.5,24.6,00.0,34.5,27.4,12.2,0000.0,0000.46,0000.63,0000.39
2021-10-29 11:03:00,,0830.1,5.00,0.00,25.5,24.6,00.0,34.5,27.4,12.2,0000.0,0000.46,0000.63,0000.39
2021-10-29 11:04:00,,0830.0,5.00,0.00,25.5,24.6,00.0,34.5,27.4,12.2,0000.0,0000.46,0000.63,0000.39
2021-10-29 11:05:00,,0830.0,5.00,0.00,25.5,24.6,00.0,34.5,27.4,12.2,0000.0,0000.45,0000.60,0000.38
2021-10-29 11:06:00,,0830.0,4.99,0.00,25.5,24.6,00.0,34.5,27.4,12.2,0000.0,0000.44,0000.60,0000.38
2021-10-29 11:07:00,,0830.0,5.00,0.00,25.5,24.6,00.0,34.5,27.4,12.2,0000.0,0000.44,0000.59,0000.38
2021-10-29 11:08:00,,0830.0,5.01,0.00,25.5,24.6,00.0,34.5,27.3,12.2,0000.0,0000.43,0000.57,0000.38
2021-10-29 11:09:00,,0829.9,5.01,0.00,25.5,24.6,00.0,34.5,27.3,12.2,0000.0,0000.43,0000.56,0000.38
2021-10-29 11:10:00,,0829.9,5.00,0.00,25.5,24.6,00.0,34.5,27.3,12.2,0000.0,0000.42,0000.54,0000.38
2021-10-29 11:11:00,,0829.9,5.00,0.00,25.5,24.6,00.0,34.5,27.3,12.2,0000.0,0000.41,0000.49,0000.38
2021-10-29 11:12:00,,0829.9,5.00,0.00,25.5,24.6,00.0,34.5,27.4,12.2,0000.0,0000.42,0000.58,0000.39
2021-10-29 11:13:00,,0830.1,4.99,0.00,25.5,24.6,00.0,34.5,27.3,12.3,0000.0,0000.41,0000.59,0000.39
2021-10-29 11:14:00,,0830.0,5.01,0.00,25.5,24.6,00.0,34.5,27.3,12.2,0000.0,0000.42,0000.62,0000.39
2021-10-29 11:15:00,,0830.1,4.99,0.00,25.5,24.6,00.0,34.5,27.3,12.3,0000.0,0000.43,0000.64,0000.40
2021-10-29 11:16:00,,0830.1,5.01,0.00,25.5,24.5,00.0,34.5,27.3,12.3,0000.0,0000.43,0000.64,0000.40
2021-10-29 11:17:00,,0830.1,5.00,0.00,25.5,24.5,00.0,34.5,27.3,12.4,0000.0,0000.43,0000.63,0000.40
2021-10-29 11:18:00,,0830.1,4.99,0.00,25.5,24.6,00.0,34.5,27.3,12.4,0000.0,0000.43,0000.63,0000.40
2021-10-29 11:19:00,,0830.2,5.01,0.00,25.5,24.6,00.0,34.5,27.3,12.4,0000.0,0000.45,0000.69,0000.41
2021-10-29 11:20:00,,0830.1,4.99,0.00,25.5,24.5,00.0,34.5,27.3,12.4,0000.0,0000.46,0000.71,0000.41
2021-10-29 11:21:00,,0830.1,4.99,0.00,25.5,24.5,00.0,34.5,27.3,12.8,0000.0,0000.47,0000.75,0000.42
2021-10-29 11:22:00,,0830.1,5.01,0.00,25.5,24.5,00.0,34.5,27.3,13.4,0000.0,0000.51,0000.81,0000.45
2021-10-29 11:23:00,,0830.1,5.01,0.00,25.4,24.5,00.0,34.5,27.3,13.4,0000.0,0000.57,0000.82,0000.48
2021-10-29 11:24:00,,0830.1,4.99,0.00,25.4,24.5,00.0,34.5,27.3,13.5,0000.0,0000.62,0000.86,0000.52
2021-10-29 11:25:00,,0830.0,5.00,0.00,25.4,24.5,00.0,34.5,27.3,13.6,0000.0,0000.70,0001.01,0000.57
2021-10-29 11:26:00,,0830.0,5.00,0.00,25.4,24.5,00.0,34.5,27.2,13.6,0000.0,0000.76,0001.11,0000.62
2021-10-29 11:27:00,,0830.0,5.00,0.00,25.4,24.5,00.0,34.5,27.2,13.5,0000.0,0000.81,0001.17,0000.67
2021-10-29 11:28:00,,0830.0,5.00,0.00,25.4,24.5,00.0,34.5,27.2,13.5,0000.0,0000.86,0001.28,0000.71
2021-10-29 11:29:00,,0829.9,5.01,0.00,25.4,24.5,00.0,34.5,27.3,13.5,0000.0,0000.90,0001.34,0000.75
2021-10-29 11:30:00,,0829.9,5.00,0.00,25.4,24.5,00.0,34.5,27.3,13.4,0000.0,0000.96,0001.41,0000.79
2021-10-29 11:31:00,,0829.9,5.00,0.00,25.4,24.5,00.0,34.5,27.3,13.4,0000.0,0000.99,0001.43,0000.82
2021-10-29 11:32:00,,0830.0,5.00,0.00,25.4,24.5,00.0,34.5,27.3,13.4,0000.0,0001.02,0001.45,0000.85
2021-10-29 11:33:00,,0830.0,5.01,0.00,25.4,24.5,00.0,34.5,27.3,13.2,0000.0,0001.02,0001.43,0000.86
2021-10-29 11:34:00,,0829.9,5.00,0.00,25.4,24.6,00.0,34.5,27.3,13.3,0000.0,0001.01,0001.44,0000.86
2021-10-29 11:35:00,,0829.9,4.99,0.00,25.4,24.6,00.0,34.5,27.3,13.4,0000.0,0001.00,0001.53,0000.85
2021-10-29 11:36:00,,0829.9,4.99,0.00,25.4,24.6,00.0,34.5,27.3,13.4,0000.0,0000.95,0001.41,0000.83
2021-10-29 11:37:00,,0829.9,5.00,0.00,25.5,24.6,00.0,34.5,27.3,13.4,0000.0,0000.91,0001.33,0000.81
2021-10-29 11:38:00,,0829.9,5.00,0.00,25.5,24.6,00.0,34.5,27.3,13.4,0000.0,0000.93,0001.38,0000.80
2021-10-29 11:39:00,,0829.9,5.01,0.00,25.5,24.6,00.0,34.5,27.3,13.4,0000.0,0000.95,0001.53,0000.81
2021-10-29 11:40:00,,0829.9,5.01,0.00,25.5,24.6,00.0,34.5,27.3,13.4,0000.0,0000.96,0001.57,0000.81
2021-10-29 11:41:00,,0829.9,5.00,0.00,25.5,24.6,00.0,34.5,27.3,13.4,0000.0,0000.94,0001.53,0000.80
2021-10-29 11:42:00,,0829.9,5.00,0.00,25.4,24.6,00.0,34.5,27.3,13.4,0000.0,0000.96,0001.61,0000.80
2021-10-29 11:43:00,,0829.9,5.00,0.00,25.4,24.5,00.0,34.5,27.3,13.4,0000.0,0001.00,0001.67,0000.82
2021-10-29 11:44:00,,0829.9,5.00,0.00,25.4,24.5,00.0,34.5,27.3,13.5,0000.0,0001.02,0001.70,0000.83
2021-10-29 11:45:00,,0829.9,5.00,0.00,25.4,24.5,00.0,34.5,27.3,13.5,0000.0,0001.02,0001.68,0000.84
2021-10-29 11:46:00,,0829.8,5.01,0.00,25.4,24.5,00.0,34.5,27.3,13.4,0000.0,0001.02,0001.97,0000.85
2021-10-29 11:47:00,,0829.8,4.99,0.00,25.4,24.5,00.0,34.5,27.3,13.4,0000.0,0001.09,0002.31,0000.86
2021-10-29 11:48:00,,0829.9,5.01,0.00,25.4,24.5,00.0,34.5,27.3,13.4,0000.0,0001.14,0002.40,0000.88
2021-10-29 11:49:00,,0829.9,5.00,0.00,25.4,24.5,00.0,34.5,27.3,13.4,0000.0,0001.15,0002.42,0000.89
2021-10-29 11:50:00,,0829.9,5.00,0.00,25.4,24.5,00.0,34.5,27.3,13.4,0000.0,0001.13,0002.25,0000.90
2021-10-29 11:51:00,,0829.8,5.01,0.00,25.4,24.5,00.0,34.5,27.2,13.4,0000.0,0001.12,0002.27,0000.90
2021-10-29 11:52:00,,0829.8,5.00,0.00,25.4,24.5,00.0,34.5,27.3,13.4,0000.0,0001.13,0002.39,0000.90
2021-10-29 11:53:00,,0829.8,4.98,0.00,25.4,24.5,00.0,34.5,27.3,13.4,0000.0,0001.13,0002.35,0000.90
2021-10-29 11:54:00,,0829.8,5.01,0.00,25.4,24.5,00.0,34.5,27.3,13.4,0000.0,0001.11,0002.29,0000.90
2021-10-29 11:55:00,,0829.8,4.99,0.00,25.4,24.5,00.0,34.5,27.2,13.4,0000.0,0001.12,0002.35,0000.90
2021-10-29 11:56:00,,0829.8,5.02,0.00,25.4,24.5,00.0,34.5,27.3,13.4,0000.0,0001.14,0002.41,0000.89
2021-10-29 11:57:00,,0829.8,5.01,0.00,25.4,24.5,00.0,34.5,27.3,13.4,0000.0,0001.12,0002.08,0000.88
2021-10-29 11:58:00,,0829.8,5.00,0.00,25.4,24.5,00.0,34.5,27.3,13.4,0000.0,0001.07,0001.66,0000.88
2021-10-29 11:59:00,,0829.8,5.00,0.00,25.4,24.5,00.0,34.5,27.3,13.4,0000.0,0001.03,0001.58,0000.87
